Powrót do katalogu

DELTA 1 DEB

AktywnyPO
NORAD 27726·DEBRIS·🇺🇸 United States

Wystrzelony Jan 22, 1975 z Vandenberg Space Force Base

Loading…

Następne Przeloty (najbliższe 24 godziny)

TLE

ŚwieżeSource: Space-Track

Epoka: Sep 14, 2026, 08:39 UTC

1 27726U 75004HS  26257.36106606  .00000103  00000-0  56547-4 0  9995
2 27726  97.7915 230.6820 0105617 229.3879 129.8080 14.24950798348254

Śledź DELTA 1 DEB w czasie rzeczywistym z AllMySat

Download on the App Store